Gwinn, MI

9:53 PM EDT on April 26, 2018 (GMT -0400)
Sawyer International

Weather History for KSAW - October, 2011

Change the Weather History Date:

Saturday, October 15, 2011

  Actual Average (KESC) Record (KESC)
Temperature  
Mean Temperature 44 °F -  
Max Temperature 46 °F 53 °F 65 °F (1953)
Min Temperature 41 °F 40 °F 24 °F (1998)
Degree Days  
Heating Degree Days 22    
Moisture  
Dew Point 35 °F    
Average Humidity 75    
Maximum Humidity 87    
Minimum Humidity 53    
Precipitation  
Precipitation 0.00 in - - ()
Sea Level Pressure  
Sea Level Pressure 29.45 in    
Wind  
Wind Speed 18 mph (WNW)    
Max Wind Speed 29 mph    
Max Gust Speed 39 mph    
Visibility 10 miles    
Events Rain    
Averages and records for this station are not official NWS values.
T = Trace of Precipitation, MM = Missing Value Source: NWS Daily Summary

Daily Weather History Graph

Daily Weather History Graph

Search for Another Location

Airport or City:

Astronomy

Oct. 15, 2011 Rise Set
Actual Time 8:06 AM EDT 7:03 PM EDT
Civil Twilight 7:36 AM EDT 7:33 PM EDT
Nautical Twilight 7:01 AM EDT 8:08 PM EDT
Astronomical Twilight 6:26 AM EDT 8:43 PM EDT
Moon 8:45 PM EDT (10/15) 11:44 AM EDT (10/15)
Length of Visible Light 11h 57m
Length of Day
10h 57m
Waning Gibbous, 89% of the Moon is Illuminated
Oct 15
Waning Gibbous
Oct 19
Last Quarter
Oct 26
New
Nov 2
First Quarter
Nov 10
Full

Hourly Weather History & Observations

Time (EDT) Temp. Windchill Dew Point Humidity Pressure Visibility Wind Dir Wind Speed Gust Speed Precip Events Conditions
12:18 AM 41.0 °F 32.5 °F 37.4 °F 87% 29.33 in 10.0 mi WNW 17.3 mph 27.6 mph N/A Rain Light Rain
12:38 AM 41.0 °F 33.1 °F 37.4 °F 87% 29.33 in 7.0 mi NW 15.0 mph 20.7 mph N/A Rain Light Rain
12:58 AM 41.0 °F 32.8 °F 37.4 °F 87% 29.32 in 10.0 mi WNW 16.1 mph 20.7 mph N/A Rain Light Rain
1:18 AM 41.0 °F 30.9 °F 37.4 °F 87% 29.32 in 7.0 mi WNW 24.2 mph 33.4 mph N/A   Overcast
1:39 AM 41.0 °F 33.1 °F 37.4 °F 87% 29.33 in 5.0 mi WNW 15.0 mph 23.0 mph N/A   Overcast
1:58 AM 41.0 °F 32.8 °F 37.4 °F 87% 29.33 in 10.0 mi WNW 16.1 mph 29.9 mph N/A Rain Light Rain
2:18 AM 41.0 °F 31.6 °F 37.4 °F 87% 29.33 in 10.0 mi NW 20.7 mph 33.4 mph N/A Rain Light Rain
2:39 AM 41.0 °F 31.4 °F 37.4 °F 87% 29.34 in 10.0 mi NW 21.9 mph 38.0 mph N/A Rain Light Rain
2:58 AM 41.0 °F 30.7 °F 35.6 °F 81% 29.34 in 10.0 mi NW 25.3 mph 33.4 mph N/A   Overcast
3:19 AM 41.0 °F 32.8 °F 37.4 °F 87% 29.35 in 7.0 mi NW 16.1 mph 28.8 mph N/A Rain Light Rain
3:38 AM 41.0 °F 31.4 °F 37.4 °F 87% 29.35 in 7.0 mi NW 21.9 mph 31.1 mph N/A   Overcast
3:58 AM 41.0 °F 31.9 °F 37.4 °F 87% 29.35 in 10.0 mi NW 19.6 mph 31.1 mph N/A Rain Rain
4:19 AM 41.0 °F 33.1 °F 37.4 °F 87% 29.35 in 10.0 mi NW 15.0 mph 29.9 mph N/A Rain Light Rain
4:38 AM 41.0 °F 31.4 °F 37.4 °F 87% 29.36 in 10.0 mi NW 21.9 mph 34.5 mph N/A Rain Light Rain
4:58 AM 41.0 °F 33.1 °F 37.4 °F 87% 29.36 in 10.0 mi NW 15.0 mph 32.2 mph N/A   Overcast
5:19 AM 42.8 °F 34.3 °F 37.4 °F 81% 29.37 in 10.0 mi WNW 19.6 mph 25.3 mph N/A   Overcast
5:38 AM 42.8 °F 34.0 °F 37.4 °F 81% 29.37 in 10.0 mi WNW 20.7 mph 27.6 mph N/A   Overcast
5:58 AM 42.8 °F 34.3 °F 37.4 °F 81% 29.38 in 10.0 mi NW 19.6 mph 28.8 mph N/A   Overcast
6:50 AM 41.0 °F 33.1 °F 35.6 °F 81% 29.40 in 10.0 mi WNW 15.0 mph 24.2 mph N/A   Overcast
7:55 AM 41.0 °F 31.1 °F 35.6 °F 81% 29.41 in 10.0 mi NW 23.0 mph 29.9 mph N/A   Overcast
8:50 AM 42.8 °F 34.8 °F 33.8 °F 70% 29.43 in 10.0 mi WNW 17.3 mph 34.5 mph N/A   Light Drizzle
9:50 AM 41.0 °F 31.1 °F 35.6 °F 81% 29.45 in 10.0 mi WNW 23.0 mph 34.5 mph N/A   Light Drizzle
10:50 AM 42.8 °F 34.8 °F 33.8 °F 70% 29.46 in 10.0 mi WNW 17.3 mph 33.4 mph N/A   Overcast
11:50 AM 44.6 °F 36.4 °F 33.8 °F 66% 29.48 in 10.0 mi WNW 20.7 mph 34.5 mph N/A   Mostly Cloudy
12:50 PM 44.6 °F 36.1 °F 33.8 °F 66% 29.50 in 10.0 mi WNW 21.9 mph 29.9 mph N/A   Mostly Cloudy
1:50 PM 46.4 °F 37.4 °F 32.0 °F 57% 29.51 in 10.0 mi WNW 28.8 mph 39.1 mph N/A   Mostly Cloudy
2:50 PM 46.4 °F 38.3 °F 32.0 °F 57% 29.52 in 10.0 mi West 23.0 mph 31.1 mph N/A   Overcast
3:55 PM 46.4 °F 37.5 °F 30.2 °F 53% 29.53 in 10.0 mi WNW 27.6 mph 39.1 mph N/A   Mostly Cloudy
4:50 PM 46.4 °F 39.5 °F 30.2 °F 53% 29.55 in 10.0 mi West 17.3 mph 33.4 mph N/A   Scattered Clouds
5:50 PM 46.4 °F 38.5 °F 30.2 °F 53% 29.57 in 10.0 mi WNW 21.9 mph 33.4 mph N/A   Mostly Cloudy
6:50 PM 46.4 °F 40.7 °F 30.2 °F 53% 29.58 in 10.0 mi West 12.7 mph 26.5 mph N/A   Mostly Cloudy
7:50 PM 44.6 °F 38.8 °F 32.0 °F 61% 29.58 in 10.0 mi WNW 11.5 mph 17.3 mph N/A   Clear
8:50 PM 44.6 °F 39.2 °F 32.0 °F 61% 29.59 in 10.0 mi West 10.4 mph 17.3 mph N/A   Clear
9:55 PM 42.8 °F 36.6 °F 33.8 °F 70% 29.59 in 10.0 mi WNW 11.5 mph 20.7 mph N/A   Clear
10:19 PM 42.8 °F 35.8 °F 33.8 °F 70% 29.60 in 10.0 mi WNW 13.8 mph 23.0 mph N/A   Clear
10:38 PM 42.8 °F 34.8 °F 32.0 °F 66% 29.60 in 10.0 mi WNW 17.3 mph 24.2 mph N/A   Clear
10:58 PM 42.8 °F 37.0 °F 32.0 °F 66% 29.61 in 10.0 mi West 10.4 mph 23.0 mph N/A   Clear
11:19 PM 41.0 °F 35.8 °F 32.0 °F 70% 29.62 in 10.0 mi West 8.1 mph - N/A   Clear
11:38 PM 41.0 °F 35.8 °F 32.0 °F 70% 29.61 in 10.0 mi West 8.1 mph - N/A   Clear
11:58 PM 41.0 °F 35.2 °F 32.0 °F 70% 29.62 in 10.0 mi West 9.2 mph - N/A   Clear